TimeMDT,TemperatureF,Dew PointF,Humidity,Sea Level PressureIn,VisibilityMPH,Wind Direction,Wind SpeedMPH,Gust SpeedMPH,PrecipitationIn,Events,Conditions,WindDirDegrees,DateUTC
12:53 AM,32.0,19.0,59,30.23,10.0,Calm,Calm,-,N/A,,Overcast,0,2012-10-07 06:53:00
1:53 AM,34.0,18.0,52,30.21,10.0,Calm,Calm,-,N/A,,Mostly Cloudy,0,2012-10-07 07:53:00
2:53 AM,34.0,21.0,59,30.19,10.0,Calm,Calm,-,N/A,,Mostly Cloudy,0,2012-10-07 08:53:00
3:53 AM,34.0,25.0,70,30.17,10.0,West,3.5,-,0.00,,Overcast,280,2012-10-07 09:53:00
4:53 AM,30.9,24.1,76,30.18,10.0,WSW,6.9,-,N/A,,Partly Cloudy,250,2012-10-07 10:53:00
5:53 AM,32.0,24.1,73,30.17,10.0,SW,3.5,-,N/A,,Mostly Cloudy,230,2012-10-07 11:53:00
6:53 AM,33.1,25.0,72,30.18,10.0,WSW,5.8,-,N/A,,Mostly Cloudy,240,2012-10-07 12:53:00
7:53 AM,34.0,25.0,70,30.17,10.0,WSW,9.2,-,N/A,,Clear,250,2012-10-07 13:53:00
8:53 AM,39.9,26.1,58,30.16,10.0,WSW,5.8,-,N/A,,Clear,250,2012-10-07 14:53:00
9:53 AM,44.1,25.0,47,30.14,10.0,South,5.8,-,N/A,,Clear,180,2012-10-07 15:53:00
11:53 AM,48.9,25.0,39,30.09,10.0,Variable,6.9,-,N/A,,Clear,0,2012-10-07 17:53:00
12:53 PM,50.0,23.0,35,30.06,10.0,Variable,4.6,-,N/A,,Clear,0,2012-10-07 18:53:00
1:53 PM,50.0,23.0,35,30.03,10.0,West,4.6,-,N/A,,Clear,270,2012-10-07 19:53:00
2:53 PM,52.0,23.0,32,29.99,10.0,Calm,Calm,-,N/A,,Clear,0,2012-10-07 20:53:00
3:53 PM,52.0,23.0,32,29.98,10.0,SW,3.5,-,N/A,,Clear,220,2012-10-07 21:53:00
4:53 PM,53.1,24.1,32,29.97,10.0,SSE,6.9,-,N/A,,Clear,160,2012-10-07 22:53:00
5:53 PM,50.0,25.0,38,29.98,10.0,SSW,3.5,-,N/A,,Clear,200,2012-10-07 23:53:00
6:53 PM,44.1,28.9,55,29.99,10.0,WSW,8.1,-,N/A,,Clear,240,2012-10-08 00:53:00
7:53 PM,42.1,28.9,60,29.99,10.0,WSW,8.1,-,N/A,,Clear,240,2012-10-08 01:53:00
8:53 PM,42.1,28.0,58,29.97,10.0,WSW,5.8,-,N/A,,Clear,240,2012-10-08 02:53:00
9:53 PM,42.1,26.1,53,29.95,10.0,WSW,6.9,-,N/A,,Clear,240,2012-10-08 03:53:00
10:53 PM,43.0,23.0,45,29.94,10.0,WNW,10.4,-,N/A,,Clear,290,2012-10-08 04:53:00
11:53 PM,48.9,23.0,36,29.90,10.0,NW,13.8,-,N/A,,Clear,310,2012-10-08 05:53:00